Regional Weather Roundup
Issued by NWS

Home | Current Version | Previous Version | Graphics & Text | Print | Product List | Glossary On
Versions: 1 2 3 4 5 6 7 8 9 10 11 12 13 14 15 16 17 18 19 20 21 22 23 24 25 26 27 28 29 30 31 32 33 34 35 36 37 38 39 40 41 42 43 44 45 46 47 48 49 50
000
ASUS43 KOAX 230802
RWRNE

WEATHER ROUNDUP FOR NEBRASKA
NATIONAL WEATHER SERVICE OMAHA NE
300 AM CDT WED AUG 23 2017

NOTES: SATELLITE DATA IS BEING USED TO AUGMENT CLOUD COVER ABOVE
       12000 FEET.
       "FAIR" INDICATES FEW OR NO CLOUDS BELOW 12,000 FEET WITH NO
       SIGNIFICANT WEATHER AND/OR OBSTRUCTIONS TO VISIBILITY.


NEZ001>004-019>022-054>056-230900-
NEBRASKA PANHANDLE

CITY           SKY/WX    TMP DP  RH WIND       PRES   REMARKS
SCOTTSBLUFF    CLEAR     59  53  80 E10       30.14F
ALLIANCE       CLEAR     59  51  75 S14       30.15S
CHADRON        CLEAR     68  51  54 SW14G25   30.07S
GORDON         FAIR      64  49  59 CALM      30.13S
KIMBALL        CLEAR     60  54  80 SE10      30.19S
SIDNEY         CLEAR     62  54  74 S13       30.19F
$$

NEZ057>060-069>072-079>082-230900-
SOUTHWEST NEBRASKA

CITY           SKY/WX    TMP DP  RH WIND       PRES   REMARKS
NORTH PLATTE   CLEAR     58  52  80 SE5       30.19S
IMPERIAL       CLEAR     59  49  69 S9        30.20F
LEXINGTON      CLEAR     58  53  82 S7        30.19S
MCCOOK         MOCLDY    61  52  72 S9        30.20S
OGALLALA       CLEAR     61  53  74 SE6       30.20S
$$

NEZ005>010-023>029-035>040-094-230900-
NORTH CENTRAL NEBRASKA

CITY           SKY/WX    TMP DP  RH WIND       PRES   REMARKS
VALENTINE      CLEAR     60  50  69 CALM      30.13F
AINSWORTH      CLEAR     58  54  85 S7        30.15S
BROKEN BOW     CLEAR     57  52  83 CALM      30.17F
O`NEILL        CLEAR     57  54  87 SE6       30.17S
ORD            CLEAR     56  52  86 CALM      30.17S
THEDFORD       CLEAR     62  54  74 S12       30.17S
$$

NEZ041-046>049-061>064-073>077-083>087-230900-
SOUTH CENTRAL NEBRASKA

CITY           SKY/WX    TMP DP  RH WIND       PRES   REMARKS
GRAND ISLAND   CLEAR     57  55  93 S7        30.19F
AURORA         CLEAR     56  54  91 S5        30.19F
HASTINGS       CLEAR     59  52  77 S5        30.21S
HEBRON         CLEAR     54  52  94 CALM      30.20S
HOLDREGE       CLEAR     57  51  81 S5        30.20F
KEARNEY        CLEAR     56  52  86 S8        30.20F
$$

NEZ011>018-030>034-042>045-230900-
NORTHEAST NEBRASKA

CITY           SKY/WX    TMP DP  RH WIND       PRES   REMARKS
NORFOLK        CLEAR     53  52  96 CALM      30.17R
ALBION         CLEAR     55  54  97 CALM      30.18S
BLAIR          CLEAR     61  51  70 CALM      30.17S
COLUMBUS       CLEAR     53  52  96 CALM      30.19R
FREMONT        CLEAR     56  56  97 CALM      30.18R
TEKAMAH        CLEAR     54  51  90 SW3       30.16S
WAYNE          CLEAR     53  50  90 CALM      30.17S
$$

NEZ050>053-065>068-078-088>093-230900-
SOUTHEAST NEBRASKA

CITY           SKY/WX    TMP DP  RH WIND       PRES   REMARKS
LINCOLN        CLEAR     56  53  90 CALM      30.19S
OMAHA EPPLEY   CLEAR     58  53  84 CALM      30.17S
BEATRICE       CLEAR     55  54  95 CALM      30.19R
FALLS CITY     CLEAR     56  53  90 CALM      30.17S
NEBRASKA CITY  CLEAR     59  54  82 CALM      30.17S
$$

NEZ044-045-051>053-067-230900-
OMAHA AREA

CITY           SKY/WX    TMP DP  RH WIND       PRES   REMARKS
OMAHA EPPLEY   CLEAR     58  53  84 CALM      30.17S
BLAIR          CLEAR     61  51  70 CALM      30.17S
FREMONT        CLEAR     56  56  97 CALM      30.18R
MILLARD        CLEAR     57  56  96 CALM      30.17S
OFFUTT AFB     CLEAR     53  53  97 CALM      30.16S
WAHOO          FAIR      55  54  94 CALM      30.17S
$$




USA.gov is the U.S. government's official web portal to all federal, state and local government web resources and services.